Change the Weather History Date:

Tuesday, March 4, 2014

  Actual Average Record
Temperature  
Mean Temperature 37 °F 31 °F  
Max Temperature 44 °F 45 °F 66 °F (2009)
Min Temperature 29 °F 18 °F -11 °F (2015)
Degree Days  
Heating Degree Days 28 34  
Month to date heating degree days 192 137  
Since 1 July heating degree days 5782 5537  
Cooling Degree Days 0 0  
Month to date cooling degree days 0 0  
Year to date cooling degree days 0 0  
Moisture  
Dew Point 30 °F    
Average Humidity 67    
Maximum Humidity 85    
Minimum Humidity 49    
Precipitation  
Precipitation T in 0.02 in 0.07 in (2008)
Month to date precipitation T 0.06  
Year to date precipitation 0.68 0.85  
Sea Level Pressure  
Sea Level Pressure 29.90 in    
Wind  
Wind Speed 8 mph (NW)    
Max Wind Speed 21 mph    
Max Gust Speed 25 mph    
Visibility 10 miles    
Events      
T = Trace of Precipitation, MM = Missing Value Source: NWS Daily Summary

Daily Weather History Graph

Daily Weather History Graph

Search for Another Location

Airport or City:

Trip Planner

Search our weather history database for the weather conditions in past years. The results will help you decide how hot, cold, wet, or windy it might be!

Date:

Astronomy

Mar. 04, 2014 Rise Set
Actual Time 6:32 AM MST 5:54 PM MST
Civil Twilight 6:03 AM MST 6:23 PM MST
Nautical Twilight 5:31 AM MST 6:55 PM MST
Astronomical Twilight 4:58 AM MST 7:28 PM MST
Moon 8:14 AM MST (3/4) 10:11 PM MST (3/4)
Length of Visible Light 12h 19m
Length of Day
11h 22m
Waxing Crescent, 15% of the Moon is Illuminated
Mar 4
Waxing Crescent
Mar 8
First Quarter
Mar 16
Full
Mar 23
Last Quarter
Mar 30
New

Hourly Weather History & Observations

Time (MST) Temp. Windchill Dew Point Humidity Pressure Visibility Wind Dir Wind Speed Gust Speed Precip Events Conditions
12:53 AM 42.1 °F 40.2 °F 25.0 °F 51% 29.81 in 10.0 mi Variable 3.5 mph - N/A   Clear
1:53 AM 37.9 °F 30.9 °F 27.0 °F 65% 29.80 in 10.0 mi WNW 10.4 mph - N/A   Clear
2:53 AM 41.0 °F 32.5 °F 28.0 °F 60% 29.77 in 10.0 mi West 17.3 mph - N/A   Clear
3:53 AM 41.0 °F 33.1 °F 28.0 °F 60% 29.78 in 10.0 mi West 15.0 mph - N/A   Clear
4:53 AM 39.9 °F 35.8 °F 28.0 °F 63% 29.80 in 10.0 mi SE 5.8 mph - N/A   Clear
5:53 AM 42.1 °F 37.7 °F 28.0 °F 58% 29.80 in 10.0 mi NW 6.9 mph - N/A   Clear
6:53 AM 41.0 °F 34.3 °F 28.0 °F 60% 29.80 in 10.0 mi NW 11.5 mph - N/A   Clear
7:53 AM 42.1 °F 36.6 °F 28.9 °F 60% 29.81 in 10.0 mi NW 9.2 mph - N/A   Clear
8:53 AM 41.0 °F 35.8 °F 30.0 °F 65% 29.83 in 10.0 mi NNE 8.1 mph - N/A   Mostly Cloudy
9:53 AM 39.9 °F 31.8 °F 30.0 °F 68% 29.86 in 10.0 mi North 15.0 mph - N/A   Overcast
10:53 AM 43.0 °F 35.4 °F 33.1 °F 68% 29.86 in 10.0 mi North 16.1 mph - N/A   Overcast
11:53 AM 39.0 °F 31.8 °F 30.9 °F 73% 29.91 in 10.0 mi NNW 11.5 mph - N/A   Overcast
12:53 PM 39.0 °F 34.8 °F 33.1 °F 79% 29.88 in 10.0 mi West 5.8 mph - 0.00 in   Overcast
1:53 PM 39.9 °F 35.1 °F 33.1 °F 77% 29.89 in 10.0 mi West 6.9 mph - N/A   Mostly Cloudy
2:53 PM 39.9 °F 33.9 °F 33.1 °F 77% 29.88 in 10.0 mi WNW 9.2 mph - N/A   Clear
3:53 PM 39.9 °F 33.4 °F 33.1 °F 77% 29.88 in 10.0 mi WNW 10.4 mph - N/A   Clear
4:53 PM 37.9 °F 33.5 °F 33.1 °F 83% 29.93 in 10.0 mi WNW 5.8 mph - N/A   Clear
5:53 PM 37.0 °F 33.3 °F 32.0 °F 82% 29.95 in 10.0 mi North 4.6 mph - N/A   Partly Cloudy
6:53 PM 36.0 °F 33.3 °F 30.0 °F 79% 29.98 in 10.0 mi NW 3.5 mph - N/A   Clear
7:53 PM 36.0 °F - 28.9 °F 76% 30.02 in 10.0 mi Calm Calm - N/A   Overcast
8:53 PM 33.1 °F 26.9 °F 28.9 °F 85% 30.05 in 10.0 mi West 6.9 mph - N/A   Overcast
9:53 PM 32.0 °F 28.7 °F 28.0 °F 85% 30.07 in 10.0 mi WNW 3.5 mph - N/A   Clear
10:53 PM 30.0 °F - 27.0 °F 88% 30.08 in 10.0 mi Calm Calm - N/A   Partly Cloudy
11:53 PM 30.0 °F - 26.1 °F 85% 30.10 in 10.0 mi Calm Calm - N/A   Clear